GW6995 Weather Reports


time (UTC)temp
C
wind
direction
speed
KPH
gust
KPH
rain 1hr
cm
rain 24hr
cm
rain mn
cm
humidity
%
barometer
mb
20260510204402 21 2 4.8 4.8 0.00 0.03 0.03 51 1013.3
20260510203858 21 70 3.2 11.3 0.00 0.03 0.03 53 1013.3
20260510203356 22 179 0.0 0.0 0.00 0.03 0.03 53 1013.1
20260510202856 22 86 1.6 1.6 0.00 0.03 0.03 49 1013.2
20260510202352 22 10 4.8 9.7 0.00 0.03 0.03 47 1013.0
20260510201849 22 297 1.6 4.8 0.00 0.03 0.03 47 1013.0
20260510201347 22 104 6.4 6.4 0.00 0.03 0.03 47 1012.9
20260510200843 22 10 4.8 9.7 0.00 0.03 0.03 46 1013.0
20260510200342 22 189 4.8 6.4 0.00 0.03 0.03 46 1013.0
20260510195836 23 106 3.2 3.2 0.00 0.03 0.03 46 1013.0
20260510195334 23 346 4.8 11.3 0.00 0.03 0.03 44 1013.4
20260510194828 23 289 8.0 9.7 0.00 0.03 0.03 43 1012.9
20260510194325 23 38 6.4 11.3 0.00 0.03 0.03 43 1013.0
20260510193821 23 90 3.2 9.7 0.00 0.03 0.03 44 1012.8
20260510193316 24 35 9.7 20.9 0.00 0.03 0.03 43 1013.1
20260510192812 23 83 1.6 4.8 0.00 0.03 0.03 44 1013.0
20260510192307 23 119 6.4 6.4 0.00 0.03 0.03 45 1013.0
20260510191804 23 190 3.2 11.3 0.00 0.03 0.03 43 1013.0
20260510191259 23 124 3.2 6.4 0.00 0.03 0.03 44 1012.9
20260510190758 23 159 4.8 4.8 0.00 0.03 0.03 43 1012.9
20260510190254 23 207 6.4 9.7 0.00 0.03 0.03 45 1013.2
20260510185750 23 335 1.6 4.8 0.00 0.03 0.03 53 1013.2
20260510185250 23 141 3.2 9.7 0.00 0.03 0.03 53 1013.2
20260510184746 25 64 1.6 4.8 0.00 0.03 0.03 51 1013.4
20260510184243 25 210 3.2 6.4 0.00 0.03 0.03 59 1013.2
20260510183743 24 182 4.8 4.8 0.00 0.03 0.03 57 1013.2
20260510183238 23 3 1.6 3.2 0.00 0.03 0.03 58 1013.2
20260510182734 23 263 0.0 3.2 0.00 0.03 0.03 55 1013.3
20260510182230 23 219 3.2 3.2 0.00 0.03 0.03 55 1013.2
20260510181727 23 313 0.0 1.6 0.00 0.03 0.03 57 1013.2
20260510181224 23 5 1.6 3.2 0.00 0.03 0.03 55 1013.4
20260510180720 23 0 1.6 3.2 0.00 0.03 0.03 57 1013.3
20260510180218 23 157 3.2 3.2 0.00 0.03 0.03 58 1013.2
20260510175713 24 118 3.2 9.7 0.00 0.03 0.03 57 1013.2
20260510175210 23 163 3.2 9.7 0.00 0.03 0.03 57 1013.2
20260510174707 23 333 4.8 6.4 0.00 0.03 0.03 57 1013.1
20260510174204 23 335 1.6 3.2 0.00 0.03 0.03 57 1013.2
20260510173700 23 80 1.6 3.2 0.00 0.03 0.03 59 1013.3
20260510173156 23 128 3.2 9.7 0.00 0.03 0.03 59 1013.5
20260510172652 22 273 1.6 9.7 0.00 0.03 0.03 60 1013.3
20260510172148 22 28 0.0 1.6 0.00 0.03 0.03 66 1013.2
20260510171645 21 91 3.2 3.2 0.00 0.03 0.03 62 1013.4
20260510171143 22 101 3.2 6.4 0.00 0.03 0.03 63 1013.5
20260510170639 21 89 1.6 1.6 0.00 0.03 0.03 64 1013.4
20260510170135 21 83 1.6 4.8 0.00 0.03 0.03 65 1013.4
20260510165631 21 200 4.8 4.8 0.00 0.03 0.03 65 1013.5
20260510165127 21 59 1.6 3.2 0.00 0.03 0.03 67 1013.7
20260510164625 21 135 3.2 6.4 0.00 0.03 0.03 65 1013.7
20260510164121 21 190 0.0 1.6 0.00 0.03 0.03 67 1013.6
20260510163616 21 230 3.2 4.8 0.00 0.03 0.03 66 1013.7
20260510163113 20 18 4.8 4.8 0.00 0.03 0.03 65 1013.9
20260510162608 20 319 3.2 4.8 0.00 0.03 0.03 65 1013.8
20260510162104 20 252 4.8 9.7 0.00 0.03 0.03 69 1013.8
20260510161600 20 154 1.6 4.8 0.00 0.03 0.03 69 1014.0
20260510161057 20 214 0.0 3.2 0.00 0.03 0.03 66 1013.9
20260510160554 20 121 3.2 6.4 0.00 0.03 0.03 66 1013.5
20260510160054 20 306 3.2 6.4 0.00 0.03 0.03 69 1013.7
20260510155550 20 165 3.2 11.3 0.00 0.03 0.03 68 1013.8
20260510155047 20 118 3.2 3.2 0.00 0.03 0.03 70 1013.9
20260510154542 20 348 1.6 3.2 0.00 0.03 0.03 67 1014.2
20260510154038 19 192 1.6 4.8 0.00 0.03 0.03 71 1014.3
20260510153533 19 145 1.6 3.2 0.00 0.03 0.03 70 1014.0
20260510153031 18 264 1.6 3.2 0.00 0.03 0.03 74 1014.1
20260510152527 18 89 6.4 6.4 0.00 0.03 0.03 69 1013.9
20260510152024 18 258 0.0 3.2 0.00 0.03 0.03 74 1014.1
20260510151520 18 203 3.2 3.2 0.00 0.03 0.03 70 1014.2
20260510151018 19 150 0.0 4.8 0.00 0.03 0.03 70 1014.2
20260510150513 18 168 3.2 4.8 0.00 0.03 0.03 76 1014.4
20260510150009 18 109 3.2 3.2 0.00 0.03 0.03 69 1014.3
20260510145506 18 256 1.6 4.8 0.00 0.03 0.03 74 1014.4
20260510145002 17 220 1.6 3.2 0.00 0.03 0.03 79 1014.4
20260510144459 17 183 1.6 3.2 0.00 0.03 0.03 79 1014.1
20260510143955 17 213 1.6 3.2 0.00 0.03 0.03 78 1014.4
20260510143451 16 287 1.6 3.2 0.00 0.03 0.03 79 1014.2
20260510142948 16 156 0.0 1.6 0.00 0.03 0.03 81 1014.2
20260510142444 16 132 1.6 3.2 0.00 0.03 0.03 80 1014.2
20260510141940 16 134 0.0 1.6 0.00 0.03 0.03 82 1014.4
20260510141438 15 132 0.0 0.0 0.00 0.03 0.03 81 1014.1
20260510140935 16 136 3.2 4.8 0.00 0.03 0.03 82 1014.2
20260510140431 16 153 1.6 1.6 0.00 0.03 0.03 84 1014.2
20260510135930 15 163 0.0 1.6 0.00 0.03 0.03 82 1013.9
20260510135426 15 199 3.2 3.2 0.00 0.03 0.03 83 1014.2
20260510134924 15 209 1.6 3.2 0.00 0.03 0.03 86 1014.1
20260510134420 15 82 4.8 4.8 0.00 0.03 0.03 85 1014.0
20260510133916 14 180 0.0 1.6 0.00 0.03 0.03 89 1014.0
20260510133413 14 215 3.2 4.8 0.00 0.03 0.03 89 1014.1
20260510132908 14 208 1.6 3.2 0.00 0.03 0.03 90 1014.1
20260510132407 14 91 1.6 4.8 0.00 0.03 0.03 91 1014.1
20260510131903 13 114 0.0 1.6 0.00 0.03 0.03 92 1014.0
20260510131400 13 100 3.2 3.2 0.00 0.03 0.03 92 1013.9
20260510130857 13 212 0.0 1.6 0.00 0.03 0.03 94 1013.8
20260510130354 13 208 3.2 1.6 0.00 0.03 0.03 95 1014.0
20260510125851 13 112 0.0 0.0 0.00 0.03 0.03 96 1013.7
20260510125347 13 123 0.0 1.6 0.00 0.03 0.03 96 1013.8
20260510124844 13 101 0.0 0.0 0.00 0.03 0.03 97 1013.7
20260510124340 13 101 0.0 0.0 0.00 0.03 0.03 97 1013.9
20260510123836 12 102 0.0 1.6 0.00 0.03 0.03 97 1013.8
20260510123332 12 99 0.0 1.6 0.00 0.03 0.03 97 1013.6
20260510122828 12 106 0.0 1.6 0.00 0.03 0.03 97 1013.5
20260510122324 12 114 0.0 0.0 0.00 0.03 0.03 97 1013.6
20260510121821 12 96 0.0 0.0 0.00 0.03 0.03 97 1013.3
20260510121319 12 218 0.0 0.0 0.00 0.03 0.03 97 1013.3
20260510120816 12 218 0.0 0.0 0.00 0.03 0.03 97 1013.3
20260510120312 12 218 0.0 1.6 0.00 0.03 0.03 97 1013.2
20260510115808 12 218 0.0 0.0 0.00 0.03 0.03 97 1013.2
20260510115307 12 218 0.0 0.0 0.00 0.03 0.03 98 1013.2
20260510114801 12 218 0.0 0.0 0.00 0.03 0.03 97 1013.1
20260510114259 12 209 1.6 1.6 0.00 0.03 0.03 98 1013.3
20260510113759 12 210 0.0 0.0 0.00 0.03 0.03 98 1013.2
20260510113257 12 210 0.0 0.0 0.00 0.03 0.03 98 1013.0
20260510112753 12 209 0.0 0.0 0.00 0.03 0.03 98 1013.2
20260510112250 12 209 0.0 0.0 0.00 0.03 0.03 98 1012.9
20260510111745 12 215 0.0 1.6 0.00 0.03 0.03 98 1012.6
20260510111243 12 214 1.6 3.2 0.00 0.03 0.03 98 1012.8
20260510110742 12 204 0.0 1.6 0.00 0.03 0.03 98 1012.8
20260510110241 11 145 0.0 0.0 0.00 0.03 0.03 98 1012.4
20260510105740 11 145 0.0 1.6 0.00 0.03 0.03 98 1012.5
20260510105235 11 129 0.0 1.6 0.00 0.03 0.03 98 1012.3
20260510104732 11 104 0.0 1.6 0.00 0.03 0.03 98 1012.8
20260510104230 11 53 0.0 0.0 0.00 0.03 0.03 98 1012.8
20260510103725 11 53 0.0 0.0 0.00 0.03 0.03 98 1012.5
20260510103223 11 54 0.0 0.0 0.00 0.03 0.03 98 1012.5
20260510102722 11 48 0.0 0.0 0.00 0.03 0.03 98 1012.5
20260510102218 11 48 0.0 1.6 0.00 0.03 0.03 98 1012.4
20260510101716 11 47 0.0 0.0 0.00 0.03 0.03 98 1012.5
20260510101215 11 47 0.0 0.0 0.00 0.03 0.03 98 1012.7
20260510100710 11 47 0.0 0.0 0.00 0.03 0.03 98 1012.7
20260510100208 11 47 0.0 0.0 0.00 0.03 0.03 98 1012.8
20260510095703 11 47 0.0 0.0 0.00 0.03 0.03 98 1012.6
20260510095158 11 47 0.0 1.6 0.00 0.03 0.03 98 1012.7
20260510094657 10 334 1.6 1.6 0.00 0.03 0.03 98 1012.7
20260510094153 10 337 0.0 0.0 0.00 0.03 0.03 98 1012.9
20260510093649 11 337 0.0 0.0 0.18 0.03 0.03 98 1013.0
20260510093147 10 337 0.0 0.0 0.00 0.00 0.00 98 1012.7
20260510092643 11 337 0.0 0.0 0.00 0.00 0.00 97 1012.9
20260510092139 11 337 0.0 0.0 0.00 0.00 0.00 97 1013.1
20260510091635 11 337 0.0 0.0 0.00 0.00 0.00 97 1013.2
20260510091131 11 336 0.0 0.0 0.00 0.00 0.00 97 1013.2
20260510090628 11 336 0.0 0.0 0.00 0.00 0.00 97 1013.4
20260510090124 11 336 0.0 0.0 0.00 0.00 0.00 97 1013.3
20260510085619 11 336 0.0 0.0 0.00 0.00 0.00 97 1013.0
20260510085115 11 336 0.0 0.0 0.00 0.00 0.00 97 1013.1
20260510084612 11 335 0.0 0.0 0.00 0.00 0.00 97 1013.2
20260510084108 11 13 0.0 0.0 0.00 0.00 0.00 97 1013.0
20260510083605 11 66 0.0 0.0 0.00 0.00 0.00 97 1013.0
20260510083101 11 67 1.6 1.6 0.00 0.00 0.00 97 1013.0
20260510082558 11 34 0.0 0.0 0.00 0.00 0.00 97 1013.1
20260510082053 11 34 0.0 0.0 0.00 0.00 0.00 97 1013.0
20260510081548 11 38 0.0 0.0 0.00 0.00 0.00 97 1012.9
20260510081044 11 33 1.6 1.6 0.00 0.00 0.00 97 1012.9
20260510080544 11 72 1.6 1.6 0.00 0.00 0.00 97 1012.5
20260510080041 11 73 0.0 0.0 0.00 0.00 0.00 97 1012.1
20260510075538 11 73 0.0 0.0 0.00 0.00 0.00 97 1012.0
20260510075035 11 73 0.0 0.0 0.00 0.00 0.00 97 1012.1
20260510074533 11 73 0.0 0.0 0.00 0.00 0.00 97 1012.0
20260510074028 11 73 0.0 0.0 0.00 0.00 0.00 97 1012.0
20260510073524 11 73 0.0 0.0 0.00 0.00 0.00 97 1012.2
20260510073021 11 73 0.0 0.0 0.00 0.00 0.00 97 1012.0
20260510072518 11 73 0.0 0.0 0.00 0.00 0.00 97 1012.0
20260510072013 11 73 0.0 0.0 0.00 0.00 0.00 97 1012.0
20260510071509 11 73 0.0 0.0 0.00 0.00 0.00 97 1012.2
20260510071008 11 73 0.0 0.0 0.00 0.00 0.00 97 1012.2
20260510070505 11 72 0.0 0.0 0.00 0.00 0.00 97 1012.1
20260510070000 11 72 0.0 0.0 0.00 0.00 0.00 97 1012.3
20260510065458 11 72 0.0 0.0 0.00 0.00 0.00 97 1012.3
20260510064954 11 72 0.0 0.0 0.00 0.00 0.00 97 1012.5
20260510064451 11 72 0.0 0.0 0.00 0.00 0.00 97 1012.2
20260510063947 11 72 0.0 0.0 0.00 0.00 0.00 97 1012.3
20260510063443 11 72 0.0 0.0 0.00 0.00 0.00 97 1012.2
20260510062942 11 72 0.0 0.0 0.00 0.00 0.00 97 1012.3
20260510062442 11 72 0.0 0.0 0.00 0.00 0.00 97 1012.2
20260510061937 11 72 0.0 0.0 0.00 0.00 0.00 97 1012.0
20260510061435 11 72 0.0 0.0 0.00 0.00 0.00 97 1012.1
20260510060930 10 72 0.0 0.0 0.00 0.00 0.00 97 1012.0
20260510060428 10 72 0.0 0.0 0.00 0.00 0.00 97 1012.0
20260510055924 10 72 0.0 0.0 0.00 0.00 0.00 97 1012.0
20260510055420 10 72 0.0 0.0 0.00 0.00 0.00 97 1012.1
20260510054918 10 72 0.0 0.0 0.00 0.00 0.00 97 1012.0
20260510054414 10 72 0.0 0.0 0.00 0.00 0.00 97 1011.9
20260510053909 10 72 0.0 0.0 0.00 0.00 0.00 97 1012.0
20260510053405 10 72 0.0 0.0 0.00 0.00 0.00 97 1012.1
20260510052901 10 72 0.0 0.0 0.00 0.00 0.00 97 1012.1
20260510052357 10 72 0.0 0.0 0.00 0.00 0.00 97 1012.1
20260510051853 10 72 0.0 0.0 0.00 0.00 0.00 97 1012.1
20260510051349 10 72 0.0 0.0 0.00 0.00 0.00 97 1012.1
20260510050846 10 72 0.0 1.6 0.00 0.00 0.00 97 1012.2
20260510050343 9 72 0.0 0.0 0.00 0.00 0.00 97 1012.3
20260510045840 9 72 0.0 0.0 0.00 0.00 0.00 97 1012.2
20260510045337 9 72 0.0 0.0 0.00 0.00 0.00 97 1012.3
20260510044834 9 72 0.0 0.0 0.00 0.00 0.00 97 1012.1
20260510044331 9 72 0.0 0.0 0.00 0.00 0.00 97 1012.1
20260510043827 8 72 0.0 0.0 0.00 0.00 0.00 97 1012.0
20260510043323 8 72 0.0 0.0 0.00 0.00 0.00 97 1012.2
20260510042822 8 72 0.0 0.0 0.00 0.00 0.00 97 1012.1
20260510042317 8 72 0.0 0.0 0.00 0.00 0.00 97 1012.2
20260510041814 8 72 0.0 0.0 0.00 0.00 0.00 97 1012.2
20260510041311 8 72 0.0 0.0 0.00 0.00 0.00 97 1012.1
20260510040808 8 72 0.0 0.0 0.00 0.00 0.00 97 1012.1
20260510040305 8 72 0.0 0.0 0.00 0.00 0.00 97 1012.0
20260510035800 8 72 0.0 0.0 0.00 0.69 0.69 97 1012.1
20260510035256 8 72 0.0 0.0 0.00 0.69 0.69 97 1012.1
20260510034752 8 72 0.0 0.0 0.00 0.69 0.69 97 1012.1
20260510034250 9 72 0.0 0.0 0.00 0.69 0.69 97 1011.9
20260510033746 9 72 0.0 0.0 0.00 0.69 0.69 97 1012.1
20260510033244 9 72 0.0 0.0 0.00 0.69 0.69 97 1012.0
20260510032740 8 72 0.0 0.0 0.00 0.69 0.69 97 1011.8
20260510032236 9 72 0.0 0.0 0.00 0.69 0.69 96 1011.8
20260510031732 8 72 0.0 0.0 0.00 0.69 0.69 96 1011.9
20260510031227 9 72 0.0 0.0 0.00 0.69 0.69 96 1011.9
20260510030727 9 72 0.0 0.0 0.00 0.69 0.69 96 1011.9
20260510030225 9 72 0.0 0.0 0.00 0.69 0.69 96 1012.0
20260510025722 10 72 0.0 0.0 0.00 0.69 0.69 96 1011.9
20260510025219 9 72 0.0 0.0 0.00 0.69 0.69 96 1011.8
20260510024716 9 72 0.0 0.0 0.00 0.69 0.69 96 1012.0
20260510024213 9 72 0.0 0.0 0.00 0.69 0.69 96 1011.9
20260510023708 10 72 0.0 0.0 0.00 0.69 0.69 96 1011.9
20260510023205 10 72 0.0 0.0 0.00 0.69 0.69 96 1012.0
20260510022701 10 72 0.0 0.0 0.00 0.69 0.69 96 1012.1
20260510022156 10 72 0.0 0.0 0.00 0.69 0.69 96 1012.0
20260510021652 10 72 0.0 0.0 0.00 0.69 0.69 96 1011.9
20260510021149 10 72 0.0 0.0 0.00 0.69 0.69 96 1012.0
20260510020644 10 72 0.0 0.0 0.00 0.69 0.69 96 1011.9
20260510020139 10 72 0.0 0.0 0.00 0.69 0.69 96 1011.9
20260510015635 10 72 0.0 0.0 0.00 0.69 0.69 96 1011.8
20260510015132 10 72 0.0 0.0 0.00 0.69 0.69 96 1011.8
20260510014627 10 72 0.0 0.0 0.00 0.69 0.69 96 1011.9
20260510014125 10 72 0.0 0.0 0.00 0.69 0.69 96 1011.9
20260510013625 10 72 0.0 0.0 0.00 0.69 0.69 95 1012.0
20260510013121 11 72 0.0 0.0 0.00 0.69 0.69 95 1011.7
20260510012620 11 72 0.0 0.0 0.00 0.69 0.69 96 1012.0
20260510012117 10 72 0.0 0.0 0.00 0.69 0.69 95 1011.7
20260510011616 11 72 0.0 0.0 0.00 0.69 0.69 95 1011.8
20260510011112 11 72 0.0 0.0 0.00 0.69 0.69 95 1011.5
20260510010609 11 72 0.0 0.0 0.00 0.69 0.69 95 1011.4
20260510010107 11 72 0.0 0.0 0.00 0.69 0.69 95 1011.4
20260510005601 11 72 0.0 0.0 0.00 0.69 0.69 95 1011.3
20260510005059 11 72 0.0 0.0 0.00 0.69 0.69 95 1011.5
20260510004557 11 72 0.0 0.0 0.00 0.69 0.69 94 1011.2
20260510004055 11 72 0.0 0.0 0.00 0.69 0.69 94 1011.2
20260510003552 12 72 0.0 0.0 0.00 0.69 0.69 94 1011.5
20260510003047 12 72 0.0 0.0 0.00 0.69 0.69 94 1011.3
20260510002542 12 72 0.0 0.0 0.00 0.69 0.69 94 1011.3
20260510002040 12 72 0.0 0.0 0.00 0.69 0.69 94 1011.2
20260510001537 12 72 0.0 0.0 0.00 0.69 0.69 93 1011.5
20260510001036 12 72 0.0 0.0 0.00 0.69 0.69 93 1011.2
20260510000530 12 72 0.0 0.0 0.00 0.69 0.69 93 1011.2
20260510000027 12 72 0.0 0.0 0.00 0.69 0.69 93 1011.1
20260509235524 12 72 0.0 1.6 0.00 0.69 0.69 92 1011.1
20260509235021 13 69 0.0 1.6 0.00 0.69 0.69 92 1010.9
20260509234517 13 70 0.0 0.0 0.00 0.69 0.69 92 1010.9
20260509234015 13 62 0.0 1.6 0.00 0.69 0.69 92 1010.8
20260509233512 13 189 0.0 1.6 0.00 0.69 0.69 91 1010.8
20260509233009 13 190 0.0 0.0 0.00 0.69 0.69 91 1010.9
20260509232506 13 193 0.0 0.0 0.00 0.69 0.69 91 1011.0
20260509232002 13 193 0.0 0.0 0.00 0.69 0.69 91 1010.9
20260509231459 13 193 0.0 0.0 0.00 0.69 0.69 91 1011.1
20260509230957 13 178 0.0 0.0 0.00 0.69 0.69 92 1011.1
20260509230453 13 177 0.0 0.0 0.00 0.69 0.69 92 1011.2
20260509225949 13 178 1.6 3.2 0.00 0.69 0.69 92 1011.3
20260509225446 13 143 0.0 1.6 0.00 0.69 0.69 92 1011.3
20260509224942 13 139 0.0 0.0 0.00 0.69 0.69 93 1011.5
20260509224437 13 194 1.6 1.6 0.00 0.69 0.69 93 1011.5
20260509223935 13 149 0.0 1.6 0.00 0.69 0.69 93 1011.3
20260509223431 13 171 0.0 0.0 0.00 0.69 0.69 93 1011.4
20260509222929 13 165 1.6 1.6 0.00 0.69 0.69 93 1011.5
20260509222423 13 94 0.0 0.0 0.00 0.69 0.69 93 1011.3
20260509221919 13 94 0.0 1.6 0.00 0.69 0.69 93 1011.3
20260509221416 13 94 0.0 0.0 0.00 0.69 0.69 93 1011.5
20260509220912 13 94 0.0 1.6 0.13 0.69 0.69 93 1011.6
20260509220408 13 94 0.0 0.0 0.61 0.69 0.69 93 1011.6
20260509215904 13 93 1.6 1.6 0.43 0.64 0.64 93 1011.5
20260509215400 13 93 0.0 0.0 0.30 0.58 0.58 93 1011.8
20260509214858 13 93 0.0 1.6 0.36 0.56 0.56 92 1011.7
20260509214355 13 93 0.0 0.0 0.18 0.53 0.53 93 1011.7
20260509213853 13 94 0.0 0.0 0.30 0.51 0.51 92 1011.6
20260509213353 13 94 0.0 0.0 0.61 0.51 0.51 92 1011.6
20260509212851 13 92 1.6 3.2 0.43 0.46 0.46 92 1011.6
20260509212348 13 149 0.0 1.6 0.43 0.41 0.41 92 1011.9
20260509211844 13 149 0.0 1.6 0.13 0.36 0.36 92 1011.8
20260509211340 13 205 0.0 1.6 0.18 0.33 0.33 92 1011.8
20260509210836 13 119 1.6 1.6 0.18 0.33 0.33 91 1011.3
20260509210334 13 90 1.6 1.6 0.13 0.30 0.30 91 1011.5
20260509205834 13 90 0.0 0.0 0.13 0.30 0.30 91 1011.7
20260509205329 13 90 0.0 1.6 0.00 0.28 0.28 91 1011.7
20260509204826 13 90 0.0 1.6 0.00 0.28 0.28 90 1011.7